Regional Weather Roundup
Issued by NWS

Home | Current Version | Previous Version | Text Only | Print | Product List | Glossary On
Versions: 1 2 3 4 5 6 7 8 9 10 11 12 13 14 15 16 17 18 19 20 21 22 23 24 25 26 27 28 29 30 31 32 33 34 35 36 37 38 39 40 41 42 43 44 45 46 47 48 49 50
000
ASMX46 KSGX 252011
RWRMX

MEXICAN WEATHER ROUNDUP
NATIONAL WEATHER SERVICE SAN DIEGO CA
100 PM PDT MON JUL 25 2016

BAJA CALIFORNIA

CITY           SKY/WX    TMP DP  RH WIND       PRES   REMARKS
ENSENADA NW      N/A     72  32  22 W3        29.91S
LA PAZ         PTSUNNY   91  68  46 N10       29.85  HX  95
LORETO         MOSUNNY   90  73  58 CALM      29.82F HX  98
MEXICALI       PTSUNNY  102  64  29 SE6       29.83  HX 105
S.J. DEL CABO  MOSUNNY   88  72  58 SE23      29.87F
TIJUANA        CLOUDY    77  63  61 W10       29.98F

NORTHWESTERN MEXICO

CITY           SKY/WX    TMP DP  RH WIND       PRES   REMARKS
CHIHUAHUA      MOSUNNY   91  54  27 N12       30.09
CULIACAN       PTSUNNY   93  73  52 W7        29.86  HX 102
GUAYMAS        PTSUNNY   91  75  59 SW12      29.82  HX 102
HERMOSILLO     MOSUNNY   93  70  46 NW6       29.92  HX  99
JUAREZ         MOSUNNY   97  54  23 E12       30.01
LOS MOCHIS     MOSUNNY   90  72  55 SW10      29.85F HX  96
OBREGON        PTSUNNY   97  70  41 S6        29.82  HX 103

NORTHEASTERN MEXICO

CITY           SKY/WX    TMP DP  RH WIND       PRES   REMARKS
MATAMOROS      PTSUNNY   95  73  49 S12       29.87  HX 105
MONCLOVA         N/A    N/A N/A N/A MISG        N/A
MONTERREY      PTSUNNY   95  61  31 SE13      29.86F HX  95
NUEVO LAREDO   MOSUNNY   99  68  36 E6        29.86  HX 104
PIEDRAS NEGRAS   N/A    N/A N/A N/A MISG        N/A
REYNOSA        PTSUNNY   99  61  28 SE7       29.84  HX  99
SALTILLO       MOSUNNY   86  66  51 N23       30.14F
TORREON        MOSUNNY   95  57  28 N9        30.03S
VICTORIA       MOSUNNY   93  61  33 S12       29.87

WESTERN MEXICO

CITY           SKY/WX    TMP DP  RH WIND       PRES   REMARKS
AGUASCALIENTES MOSUNNY   79  41  25 NE5       30.22
COLIMA         PTSUNNY   82  73  74 SW12      29.98F
DURANGO        PTSUNNY   81  55  41 NE12      30.19
GUADALAJARA    MOSUNNY   79  57  47 E8        30.14
MANZANILLO     MOSUNNY   90  79  70 SW12      29.81F HX 105
MAZATLAN       MOSUNNY   90  79  70 W10       29.85F HX 105
PTO. VALLARTA  MOSUNNY   88  77  70 SW8       29.86F HX 100
TEPIC          PTSUNNY   82  72  69 N7        30.05F
URUAPAN        CLOUDY    73  66  78 SE8       30.16F
ZACATECAS      MOSUNNY   79  46  31 N16       30.28F

CENTRAL MEXICO

CITY           SKY/WX    TMP DP  RH WIND       PRES   REMARKS
CUERNAVACA     PTSUNNY   79  63  57 SW2       30.08F
LEON           MOSUNNY   79  59  50 SE8       30.25F
MEXICO CITY    PTSUNNY   75  48  38 E6        30.26F
MORELIA        PTSUNNY   75  57  53 CALM      30.18
POZA RICA      PTSUNNY   93  79  62 E7        29.91F HX 110
PUEBLA         MOSUNNY   73  52  46 S12       30.27F
QUERETARO      PTSUNNY   75  55  50 E12       30.27S
S. LUIS POTOSI MOSUNNY   82  43  24 NE16      30.20F
TAMPICO        PTSUNNY   90  75  62 E6        29.88F HX 100
TOLUCA         PTSUNNY   73  52  46 E6        30.34F
VERACRUZ       MOSUNNY   88  75  66 E12       29.86F HX  97

SOUTHERN MEXICO

CITY           SKY/WX    TMP DP  RH WIND       PRES   REMARKS
ACAPULCO       MOSUNNY   86  73  66 SW5       29.85F
B. DE HUATULCO PTSUNNY   90  77  66 S10       29.91  HX 102
MINATITLAN     PTSUNNY   88  68  51 N12       29.81F
OAXACA         MOSUNNY   75  50  41 SE8       30.17F
PTO. ESCONDIDO PTSUNNY   86  75  70 SW8       29.96F HX  95
TAPACHULA      MOSUNNY   88  75  66 SW12      29.80F HX  97
TUX. GUTIERREZ MOSUNNY   84  66  54 CALM      29.91F
VILLAHERMOSA   PTSUNNY   93  73  52 E10       29.86F HX 102
ZIHUATANEJO    PTSUNNY   91  75  59 SE9       29.86F HX 102

YUCATAN PENINSULA

CITY           SKY/WX    TMP DP  RH WIND       PRES   REMARKS
CAMPECHE       MOSUNNY   93  75  55 E12       29.87F HX 104
CANCUN         PTSUNNY   86  77  74 E10       29.96F HX  97
CHETUMAL       MOSUNNY   90  75  62 SE15      29.91F HX 100
C. DEL CARMEN  PTSUNNY   91  73  55 SE10      29.87F HX 100
COZUMEL        PTSUNNY   86  75  70 E12       29.95F HX  95
MERIDA         PTSUNNY   95  72  46 E5G18     29.91F HX 103

$$




USA.gov is the U.S. government's official web portal to all federal, state and local government web resources and services.